{"data":{"norad_id":57251,"intl_designator":"2023-094AK","name":"STARLINK-5513","alt_names":[],"object_type":"PAYLOAD","status":"ACTIVE","operator":null,"country":"US","launch_date":"2023-07-07","launch_site_code":"AFWTR","launch_vehicle":null,"mission":null,"orbit_class":"UNKNOWN","rcs_meters":null,"size_class":null,"mass_kg":null,"dimensions":null,"purposes":["comms"],"wikipedia_slug":null,"has_3d_model":false,"image_url":null,"decayed_at":null,"tle_current":{"epoch":"2026-05-25T03:14:13.770240Z","epoch_age_seconds":63168,"freshness":"FRESH","line1":"1 57251U 23094AK  26145.13488160  .00001117  00000+0  50135-4 0  9994","line2":"2 57251  43.0040 307.9612 0002049 269.6593  90.4024 15.27578650158937","mean_motion":15.2757865,"eccentricity":0.0002049,"inclination_deg":43.004,"raan_deg":307.9612,"arg_perigee_deg":269.6593,"mean_anomaly_deg":90.4024,"bstar":5.0135e-5,"rev_number":15893,"period_min":94.266832022037,"perigee_km":481.64728056893,"apogee_km":484.45899628765,"semimajor_km":6861.1901384283,"source":"CELESTRAK","updated_at":"2026-05-25T13:38:18.277571Z"}}}